Regional Weather Roundup
Issued by NWS

Home | Current Version | Previous Version | Graphics & Text | Print | Product List | Glossary On
Versions: 1 2 3 4 5 6 7 8 9 10 11 12 13 14 15 16 17 18 19 20 21 22 23 24 25 26 27 28 29 30 31 32 33 34 35 36 37 38 39 40 41 42 43 44 45 46 47 48 49 50
000
ASUS43 KTOP 181908
RWRKS

WEATHER ROUNDUP FOR KANSAS
NATIONAL WEATHER SERVICE GOODLAND KS
200 PM CDT THU SEP 18 2014

NOTE:  "FAIR" INDICATES FEW OR NO CLOUDS BELOW 12,000 FEET WITH NO
SIGNIFICANT WEATHER AND/OR OBSTRUCTIONS TO VISIBILITY.

KSZ001>006-013>018-027>032-041>047-182000-
NORTHWEST KANSAS

CITY           SKY/WX    TMP DP  RH WIND       PRES   REMARKS
GOODLAND       SUNNY     78  62  57 S9        29.98F
HAYS           SUNNY     84  64  51 S9G18     29.92F
HILL CITY      CLOUDY    69  66  90 SE6       29.96F
RUSSELL        MOSUNNY   81  65  58 S21G29    29.92F
$$

KSZ061>065-074>080-084>089-182000-
SOUTHWEST KANSAS

CITY           SKY/WX    TMP DP  RH WIND       PRES   REMARKS
DODGE CITY     SUNNY     88  54  31 S16G31    29.96S
ELKHART          N/A     84  57  39 S16         N/A
GARDEN CITY    SUNNY     89  53  29 S15       29.95S
GREAT BEND     SUNNY     82  61  47 S28G35    29.93F
LIBERAL        SUNNY     90  57  33 S16G24    29.97F
PRATT          SUNNY     82  55  39 S28       29.98F
$$

KSZ066>073-081>083-090>101-182000-
SOUTHEAST KANSAS

CITY           SKY/WX    TMP DP  RH WIND       PRES   REMARKS
CHANUTE        CLOUDY    70  65  84 NW9       29.97S
COFFEYVILLE    CLOUDY    70  65  84 NE5       29.95R
HUTCHINSON     SUNNY     85  57  38 S23G32    29.96F
MEDICINE LODGE   N/A     85  57  38 S14G29    29.95F
NEWTON         SUNNY     81  57  44 S14G23    29.99F
PARSONS        CLOUDY    69  66  90 NW7       29.98S
WICHITA INTL   MOSUNNY   86  56  35 SE18      29.95F
WICHITA JABRA  SUNNY     82  57  42 S13       29.96F
WICHITA MCCONL SUNNY     83  55  38 SE16      29.96F
WINFIELD       MOSUNNY   84  60  44 E12G20    29.96F
$$

KSZ007>012-019>026-033>040-048>060-102>105-182000-
NORTHEAST KANSAS

CITY           SKY/WX    TMP DP  RH WIND       PRES   REMARKS
CONCORDIA      PTSUNNY   75  64  68 S16G23    29.97F
EMPORIA        CLOUDY    70  64  81 CALM      29.99F
LAWRENCE       CLOUDY    68  62  81 E6        30.01S HAZE
MANHATTAN      CLOUDY    76  66  71 E5        29.98F
MARYSVILLE     CLOUDY    73  64  73 S6        29.99S
OLATHE IND     CLOUDY    69  63  81 NE7       30.01F
OLATHE EXE     CLOUDY    68  63  84 NE5       30.00F
SALINA         SUNNY     81  63  54 S16G24    29.96F
TOPEKA BILLARD CLOUDY    69  64  84 E7        30.00F
TOPEKA FORBES  CLOUDY    69  63  81 NE9       29.99F
$$



USA.gov is the U.S. government's official web portal to all federal, state and local government web resources and services.